GFSFLT2_850_dewp_000.txt.gz
Dewpoint
10 8 6 5 2 -0 -3 -6 -7 -10 -9 -3 -3 -2 -2 -2 -4 -5 -6 -5 -4 -4 -4 -4 -4 -4 -4 -5 -6 -7 -7 -6
5 2 -1 -3 -3 -5 -14 -14 -13 -9 -4 0 0 0 -1 -2 -3 -3 -3 -2 -2 -1 0 1 0 -1 -2 -3 -3 -2 -4 -6
-5 -8 -10 -8 -8 -15 -15 -14 -10 -3 -0 1 -0 -0 -1 -2 -2 -2 -1 -1 1 2 2 3 3 4 2 2 2 -1 -2 -2
-3 -8 -18 -13 -14 -10 -8 -5 -5 -1 1 1 -0 -1 -1 -1 -2 -1 -1 1 2 2 2 2 2 2 2 2 2 3 2 3
-2 -3 -4 -8 -6 -2 -2 -0 -1 2 -0 1 1 -0 -2 -1 -1 -0 -0 -0 -1 -1 -2 -2 -1 -2 -2 -0 1 -0 -0 3
1 -3 1 3 3 3 3 4 5 6 3 -3 -1 1 0 2 2 1 0 -1 -2 -2 -3 -3 -3 -3 -2 -1 -1 1 2 2
4 -2 1 3 6 6 6 7 8 8 8 5 4 4 4 4 4 3 3 1 -1 -1 -2 -2 -2 -2 -1 -1 -0 3 3 3
6 4 3 6 7 8 8 8 9 9 8 7 6 5 5 5 5 5 3 2 1 -1 -2 -2 -1 -1 -1 0 2 2 1 1
7 6 3 7 7 8 8 8 8 8 8 8 6 6 5 6 6 5 3 0 -1 -2 -3 -2 -2 -2 -2 -2 -2 -2 -2 -2
8 8 6 5 7 7 7 8 8 7 6 6 6 6 5 5 5 4 -1 -1 -3 -5 -3 -3 -3 -3 -3 -3 -4 -4 -5 -8
9 9 7 6 5 7 8 8 7 8 7 6 5 3 1 -1 -2 -2 -2 -5 -5 -3 -3 -3 -3 -4 -4 -5 -5 -6 -9 -9
9 9 8 9 8 9 6 3 4 5 3 -1 -2 -2 -2 -1 -3 -5 -5 -5 -5 -3 -3 -3 -4 -6 -6 -7 -7 -8 -9 -9
7 7 8 8 7 4 4 5 5 1 -2 -2 -2 -4 -4 -5 -4 -4 -3 -3 -2 -3 -5 -7 -9 -11 -12 -10 -9 -8 -8 -12
5 5 5 4 4 4 3 -2 -3 -3 -3 -2 -3 -3 -3 -4 -4 -3 -2 -5 -7 -8 -9 -11 -13 -16 -14 -15 -9 -11 -8 -8
0 -1 -1 -2 -3 -2 -1 -1 -2 -2 -2 -2 -2 -3 -4 -3 -2 -4 -4 -3 -3 -5 -10 -12 -12 -12 -13 -6 -4 -3 -5 -7
-1 -1 -0 -0 -0 0 1 1 0 -1 -2 -2 -3 -3 -2 -3 -3 -3 -4 -3 -6 -9 -9 -11 -9 -12 -9 -5 -3 -3 -3 -4
0 1 0 1 1 1 1 0 -0 -1 -2 -3 -2 -2 -3 -6 -9 -5 -6 -5 -7 -7 -7 -7 -11 -10 -9 -9 -11 -11 -9 -4
1 1 1 1 1 1 0 -0 -1 -3 -3 -3 -2 -4 -5 -6 -6 -5 -5 -4 -5 -9 -11 -12 -12 -12 -13 -14 -16 -16 -15 -10
1 1 1 1 1 0 -0 -2 -4 -5 -3 -3 -2 -2 -3 -4 -4 -2 -2 -6 -7 -7 -8 -13 -14 -15 -16 -15 -14 -15 -15 -14
1 1 1 0 0 -1 -3 -5 -7 -7 -5 -6 -6 -7 -5 -4 -4 -2 -4 -5 -2 -8 -9 -14 -13 -14 -14 -14 -15 -15 -14 -13

GFSFLT2_850_dewp_006.txt.gz
Dewpoint
13 13 12 11 10 9 8 5 0 -3 -2 -4 -6 -3 -1 -3 -4 -3 -4 -3 -2 -1 -0 1 1 -1 -1 -2 -3 1 5 3
12 12 10 9 9 9 5 2 -1 -0 -2 -1 -1 -0 -2 -3 -2 -3 -3 -1 0 1 2 1 0 0 -2 -3 -3 4 4 3
12 12 11 10 11 7 6 1 -1 -2 1 2 3 8 6 7 -2 -3 -2 -1 -0 0 1 0 -1 4 3 -2 2 2 3 3
11 9 9 8 10 9 6 3 8 8 8 5 9 5 6 0 0 -2 -1 -1 -1 -1 -2 -2 4 5 4 3 2 1 2 2
13 12 5 10 9 8 7 7 6 6 4 6 7 5 7 9 8 7 7 2 6 4 4 4 -1 -0 2 1 -0 -0 -1 -1
4 8 6 2 7 7 2 6 5 4 5 5 5 5 4 5 7 7 4 5 2 2 4 0 -1 -2 -6 -5 -5 -4 -2 -2
8 -0 -3 -0 5 6 7 8 8 8 7 5 4 5 7 8 7 5 4 4 3 3 3 1 -0 -0 -2 -5 -3 -3 -3 -1
3 4 5 8 9 9 8 6 6 7 8 9 8 6 5 5 6 5 4 4 4 2 -2 -3 -2 -3 -2 -2 -2 -2 -2 -2
4 6 7 8 7 6 5 4 5 6 6 7 7 7 6 7 3 4 3 1 -2 -3 -3 -1 -1 -2 -2 -2 -2 -2 -2 1
5 2 6 7 6 4 3 5 5 6 4 4 4 4 5 3 0 -2 -3 -4 -5 -2 -1 -1 -2 -1 -2 -3 -3 -3 -3 1
8 6 5 3 5 3 5 6 5 4 3 1 -0 -1 -2 -2 -3 -3 -4 -4 -3 -2 -1 -2 -2 -2 -3 -4 -4 -3 -3 -3
7 7 6 7 6 5 7 6 3 3 -0 -3 -3 -2 -2 -3 -2 -2 -3 -1 -1 -1 -1 -1 -1 -1 -1 -3 -3 -4 -5 -3
7 6 6 8 4 5 5 4 3 2 -3 -3 -3 -2 -3 -2 -1 -1 -0 0 1 0 -1 -2 -2 -1 -3 -7 -8 -9 -6 -3
9 8 9 6 5 4 4 4 1 -4 -2 -2 -2 -2 -2 -2 -1 -0 0 -0 -0 1 -1 -3 -5 -3 -2 -5 -9 -10 -11 -6
9 8 5 4 2 -0 -2 -2 -1 0 0 -1 -1 -2 -2 -2 -1 -1 -0 -1 -1 -1 -2 -2 -4 -5 -4 -4 -6 -9 -9 -9
6 4 2 -2 -2 -0 -0 1 1 -1 -1 -0 -0 -1 -3 -3 -1 -3 -3 -3 -3 -2 -3 -3 -4 -7 -7 -7 -7 -7 -7 -9
1 -1 -1 -2 -1 -0 0 -0 -0 -0 -0 -1 -1 -2 -2 -3 -3 -2 -3 -4 -2 -1 -1 -4 -5 -5 -7 -7 -8 -9 -10 -11
-1 -1 -1 -0 0 -0 -1 -3 -4 -5 -8 -9 -11 -13 -13 -12 -10 -4 -2 -2 -0 -1 -3 -3 -4 -6 -8 -9 -10 -10 -11 -11
0 0 0 0 1 -2 -5 -7 -9 -11 -14 -13 -15 -13 -13 -12 -13 -6 -2 -1 -1 -2 -3 -4 -5 -7 -8 -9 -10 -10 -10 -10
0 1 1 -1 -4 -5 -7 -11 -13 -12 -14 -15 -10 -10 -9 -7 -6 -3 -1 -1 -2 -2 -2 -4 -6 -8 -8 -9 -9 -10 -11 -10

GFSFLT2_850_dewp_012.txt.gz
Dewpoint
9 9 10 12 11 10 8 5 -6 -5 -8 -10 -6 -3 -3 -5 -5 -4 -3 -2 -1 -1 -1 -2 -1 5 4 2 2 2 1 4
12 10 12 11 9 8 6 1 -8 -4 -5 -3 -1 -1 -3 -2 -3 -5 -3 -1 -1 -1 -2 -2 4 6 5 2 2 2 -1 0
12 10 10 10 7 5 2 -2 -5 -4 -2 7 9 9 9 9 8 -3 -3 -2 -2 1 3 4 5 5 4 3 3 2 -1 -1
11 10 10 9 6 6 -2 5 6 9 4 9 10 9 8 7 8 3 7 6 6 7 5 6 6 5 4 3 2 1 -1 -1
9 8 10 11 8 7 7 8 7 8 5 10 10 9 10 9 8 8 8 7 7 6 6 5 4 3 1 0 1 0 -1 -2
10 11 11 9 7 6 8 9 9 10 8 8 9 10 8 6 7 8 7 6 6 6 5 4 2 -0 -0 -0 -1 -0 -1 -1
10 10 8 7 6 8 9 9 9 10 10 11 10 8 5 5 5 5 5 6 6 5 4 3 2 -1 -2 -2 -2 -2 -2 -1
10 8 8 9 10 9 9 7 6 7 3 4 6 9 8 7 5 5 3 0 3 4 3 -1 -1 -1 -1 -1 -1 -2 -3 -2
7 8 11 10 9 7 4 2 4 6 4 4 5 7 7 7 6 4 2 0 4 -2 -3 -2 0 -0 -1 -1 -1 -2 -3 -4
10 10 10 9 6 4 3 5 2 4 4 3 3 4 3 3 0 -2 -2 -1 -0 1 1 0 0 1 0 -1 -1 -2 -2 -5
10 11 9 7 4 5 5 4 5 4 3 1 -2 -3 -3 -2 2 1 -0 -0 1 1 2 1 1 1 0 -1 -3 -2 -4 -6
10 10 7 6 8 7 6 5 4 3 3 1 2 0 -1 -1 2 2 2 2 2 2 1 1 1 1 -0 -4 -4 -3 -6 -7
10 10 7 7 9 6 5 4 4 3 1 -2 -1 -0 1 1 1 1 1 1 1 0 -1 -0 0 -0 -3 -5 -6 -5 -6 -8
10 10 9 9 6 5 5 4 3 2 1 1 0 0 -1 0 -0 -0 0 0 -1 -1 -2 -3 -2 -1 -4 -5 -5 -6 -6 -7
10 10 9 6 5 4 4 3 0 2 1 2 2 2 1 -0 -2 -3 -3 -5 -2 -2 -3 -3 -1 -1 -4 -5 -5 -5 -5 -6
9 9 6 5 3 2 2 2 2 2 1 1 -1 -3 -5 -8 -12 -12 -11 -10 -6 -3 -2 -2 -2 -2 -3 -4 -4 -5 -6 -7
8 7 6 4 2 2 2 2 1 1 -1 -5 -9 -12 -13 -12 -12 -14 -20 -17 -13 -5 -2 -1 -1 -2 -2 -3 -5 -7 -9 -10
7 5 3 3 3 2 2 1 -1 -5 -6 -9 -12 -13 -12 -11 -12 -17 -12 -7 -4 -3 -1 -1 -1 -3 -3 -3 -6 -8 -8 -8
5 3 3 3 2 1 1 -2 -2 -1 -4 -12 -20 -12 -11 -10 -15 -13 -13 -3 -2 -2 -1 -3 -6 -5 -4 -4 -7 -8 -8 -8
3 2 3 3 1 -0 -3 -0 1 -4 -9 -14 -21 -16 -14 -12 -11 -14 -4 -2 -2 -4 -4 -4 -4 -3 -4 -5 -6 -8 -7 -9

GFSFLT2_850_dewp_015.txt.gz
Dewpoint
12 12 12 8 8 9 5 -1 -11 -8 -13 -10 -6 -6 -8 -8 -6 -4 -3 -2 -2 -2 -2 4 5 5 3 2 2 -0 1 1
10 10 12 9 11 8 4 -6 -9 -11 -9 -5 -5 -5 -4 -5 -5 -5 -3 -2 -2 -0 2 4 5 4 4 3 2 2 -1 -1
6 6 9 10 8 6 0 -9 -8 -5 -2 2 6 7 8 7 0 -1 -1 5 4 6 5 5 5 5 3 2 0 -1 -2 -1
5 9 10 9 5 -0 -6 -7 -2 2 9 9 8 9 7 8 8 9 8 8 7 6 5 6 4 3 1 1 -0 -0 -2 -3
9 9 9 4 -2 -0 2 5 6 8 10 10 9 10 9 9 8 8 8 7 6 6 6 5 4 1 0 -0 -1 -1 -1 -2
10 11 9 6 6 7 8 8 6 6 11 10 9 5 8 5 8 8 7 6 6 6 5 4 3 2 -1 -3 -2 -2 -2 -2
11 11 8 8 7 8 9 10 11 11 8 10 9 8 6 4 5 5 4 5 4 4 5 5 2 -3 -3 -2 -1 -1 -2 -3
11 8 7 7 9 9 8 10 10 8 3 4 5 6 7 7 7 5 4 1 -0 2 2 -2 -3 -2 -1 -2 -1 -1 -1 -3
7 8 8 7 8 7 6 6 4 3 3 4 5 7 8 7 6 4 -1 -3 -1 -2 -2 -2 -2 -2 -1 -0 -1 -1 -2 -2
7 9 9 7 6 6 3 3 4 4 4 3 4 5 4 1 -2 -4 -3 -2 -2 -1 0 1 1 0 -2 -1 -1 -3 -3 -2
11 10 9 7 5 4 5 5 4 4 3 0 -3 -4 -4 -4 -2 0 0 0 1 1 1 1 -1 0 1 0 -2 -4 -4 -7
10 10 7 7 6 6 6 5 4 3 0 -3 -3 -3 -1 -1 -0 -0 -0 1 1 1 1 -3 -2 -0 0 -1 -5 -5 -6 -7
10 8 8 6 7 5 5 3 2 -1 0 -2 -1 -1 -1 -1 -1 -0 -2 -4 -3 -2 -4 -2 -3 -4 -4 -2 -3 -6 -6 -6
9 8 8 6 9 5 4 3 2 1 -1 0 1 1 -1 -2 -3 -5 -5 -6 -8 -8 -5 -4 -6 -3 -1 -2 -4 -5 -6 -6
9 8 6 9 9 6 5 4 2 1 1 2 1 1 -1 -3 -6 -10 -13 -12 -11 -10 -6 -4 -2 -2 -2 -3 -4 -5 -5 -6
10 9 8 9 7 5 5 3 2 2 2 2 1 -2 -7 -13 -21 -25 -24 -25 -25 -20 -12 -6 -2 -2 -1 -2 -3 -4 -7 -8
10 10 9 5 5 4 2 1 3 2 1 1 -4 -5 -14 -20 -25 -25 -26 -27 -18 -9 -4 -2 -1 -1 -2 -3 -3 -4 -6 -8
9 9 8 5 3 2 1 2 3 2 1 -3 -1 -3 -14 -23 -25 -26 -27 -17 -7 -3 -2 -1 -1 -2 -5 -6 -4 -6 -7 -8
9 9 6 6 4 2 2 2 1 0 -2 0 -0 -9 -22 -27 -26 -27 -24 -11 -3 -3 -4 -6 -5 -5 -7 -6 -4 -6 -8 -7
8 6 6 5 2 2 2 2 -0 -1 0 -1 -9 -20 -24 -25 -26 -27 -14 -5 -3 -2 -5 -6 -6 -4 -4 -5 -6 -6 -8 -7

GFSFLT2_850_dewp_018.txt.gz
Dewpoint
12 11 9 7 8 4 3 -7 -8 -12 -10 -10 -7 -9 -6 -5 -4 -3 -2 -2 -2 0 3 4 4 4 3 2 2 1 -2 -1
10 8 7 5 6 6 -2 -7 -11 -12 -8 -5 -6 -7 -5 -5 -4 -2 -1 -2 3 5 4 4 5 5 4 1 -0 -1 -2 -3
10 7 7 9 9 4 -5 -6 -8 -4 -2 -3 2 5 5 -2 0 5 7 6 6 5 6 6 6 5 4 1 -0 -1 -1 -4
7 7 5 9 7 -1 -5 -5 0 6 7 7 8 7 7 5 8 7 7 7 6 6 6 6 4 2 1 0 -1 -2 -2 -2
8 8 9 8 1 -5 -4 2 9 10 9 9 8 7 6 7 8 8 7 7 6 6 6 5 2 1 1 -1 -4 -4 -2 -2
10 8 6 2 1 -2 4 4 10 10 10 9 8 9 9 8 7 8 7 6 6 6 5 4 4 3 -1 -3 -3 -2 -1 -2
8 7 5 4 6 7 8 8 9 10 9 9 9 7 7 5 6 5 5 5 4 3 2 4 3 -2 -3 -2 -2 -1 -1 -2
10 8 6 7 8 9 10 10 9 8 6 4 5 7 7 5 6 6 5 2 0 -2 -1 -2 -3 -2 -2 -2 -5 -4 -1 -1
10 8 8 7 8 9 10 10 9 4 3 3 5 6 6 6 7 5 0 -4 -4 -3 -3 -3 -2 -2 -1 -0 -4 -1 -2 -2
9 8 8 8 9 9 10 9 6 4 4 5 5 6 5 3 3 -3 -4 -2 -2 -2 -2 -2 0 1 -2 -2 -1 -2 -3 -4
8 8 7 8 9 8 5 4 4 3 3 1 1 -1 -3 -5 -3 -2 -2 -2 -2 -2 -1 1 1 -5 -4 -1 -0 -3 -5 -5
8 8 8 7 8 6 6 5 4 4 2 -1 -3 -4 -3 -2 -2 -3 -3 -4 -2 -1 -2 -5 -11 -7 -5 -5 -4 -3 -5 -6
7 9 9 9 6 5 6 4 4 3 -1 -3 -4 -3 -2 -3 -4 -3 -6 -11 -13 -12 -15 -12 -9 -9 -8 -3 -2 -3 -6 -6
10 10 10 9 6 6 4 3 2 -1 -2 -4 -3 -2 -2 -3 -3 -6 -10 -15 -16 -14 -12 -11 -9 -4 -2 -2 -3 -4 -5 -6
8 9 8 8 6 6 2 2 1 0 -2 -2 -1 -0 -1 -3 -5 -11 -13 -19 -21 -22 -20 -13 -6 -2 -2 -2 -3 -4 -4 -5
7 7 7 7 7 5 4 3 3 2 -1 -1 0 1 -3 -4 -10 -18 -21 -23 -27 -27 -23 -13 -5 -1 -1 -1 -2 -3 -3 -5
9 8 8 7 8 9 6 5 4 3 1 1 1 -1 -4 -8 -15 -20 -24 -27 -26 -20 -13 -5 -1 -1 -1 -2 -4 -6 -5 -6
9 9 9 9 9 8 7 5 4 2 2 2 0 -2 -4 -11 -19 -22 -24 -25 -24 -12 -6 -3 -5 -6 -5 -6 -7 -6 -6 -7
10 10 10 9 7 6 5 5 2 2 2 1 -2 -5 -11 -18 -23 -25 -24 -23 -17 -8 -4 -2 -6 -7 -6 -6 -6 -6 -5 -6
10 10 10 7 5 4 3 2 3 2 -0 -1 -3 -9 -18 -23 -21 -19 -22 -17 -11 -5 -3 -4 -4 -6 -6 -5 -5 -4 -5 -6

GFSFLT2_850_dewp_021.txt.gz
Dewpoint
12 12 12 8 3 -1 -4 -6 -13 -10 -10 -8 -7 -6 -4 -3 -2 -2 -2 -2 -1 2 3 4 4 4 4 1 -1 -2 -4 -5
9 9 8 7 5 3 1 -8 -10 -10 -6 -7 -5 -4 -3 -2 -1 -2 -0 2 3 4 4 4 4 4 4 2 1 0 -3 -4
9 9 7 6 4 2 -4 -9 -9 -5 -4 -5 -2 -3 -4 -3 -2 2 2 4 5 5 5 5 5 4 3 1 -0 -2 -3 -4
7 4 4 5 3 0 -5 -8 -3 -2 2 5 5 2 -1 2 3 3 4 6 6 5 5 5 5 3 1 0 -1 -3 -3 -2
5 7 7 6 4 -2 -5 -3 6 7 8 8 6 6 5 6 6 6 7 6 6 6 6 5 3 2 1 -1 -3 -3 -3 -2
6 6 7 7 2 -3 0 7 9 9 9 8 6 5 5 6 8 8 7 6 6 5 5 4 4 3 -0 -3 -2 -4 -4 -2
6 7 8 6 -2 -0 6 10 10 10 9 8 7 6 7 7 8 8 7 6 5 4 2 2 1 -2 -2 -2 -2 -7 -6 -2
8 6 4 1 5 8 7 9 9 9 8 7 8 8 8 6 5 5 5 4 2 -1 -1 -2 -2 -1 -1 -1 -1 -4 -2 -2
6 4 3 6 8 8 9 8 8 8 8 9 10 9 8 7 7 6 4 -1 -3 -3 -2 -2 -1 -1 0 -0 -4 -2 -3 -5
7 7 7 8 8 9 10 10 10 8 4 5 6 7 7 6 5 3 -3 -2 -3 -3 -2 -1 0 0 -5 -2 -0 -1 -3 -4
9 8 8 7 8 10 10 10 9 5 4 5 6 6 3 -1 -3 -3 -3 -2 -2 -3 -3 -2 -4 -8 -6 -4 -4 -4 -5 -5
10 8 8 8 8 10 10 7 5 4 4 3 2 -1 -4 -4 -3 -3 -2 -4 -6 -10 -14 -14 -17 -14 -12 -10 -5 -3 -3 -3
8 7 8 9 10 10 7 5 5 4 2 -0 -3 -4 -3 -3 -3 -2 -4 -6 -10 -16 -20 -20 -19 -21 -19 -8 -4 -4 -4 -5
9 8 9 9 9 9 7 5 4 3 1 -1 -3 -3 -2 -2 -3 -3 -3 -4 -8 -19 -25 -26 -25 -17 -12 -6 -3 -5 -5 -5
4 7 7 8 8 8 6 5 3 2 1 -1 -2 -2 -1 -1 -3 -2 -3 -8 -19 -24 -27 -28 -22 -14 -7 -3 -2 -3 -4 -4
-0 2 6 8 9 8 6 5 3 1 -1 -2 -2 -1 1 -2 -3 -4 -7 -14 -24 -27 -27 -20 -12 -5 -2 -1 -1 -2 -3 -5
4 6 8 10 10 8 6 4 3 1 1 -1 0 1 1 -3 -5 -8 -15 -24 -26 -25 -16 -9 -4 -4 -5 -4 -4 -6 -6 -6
7 7 8 9 8 7 6 7 5 3 3 1 1 1 -0 -5 -8 -16 -23 -22 -11 -21 -11 -7 -5 -4 -8 -8 -7 -5 -6 -5
8 8 8 8 8 8 7 8 7 5 4 3 1 1 -4 -7 -13 -22 -6 1 -16 -13 -9 -5 -5 -6 -6 -7 -7 -6 -5 -5
8 9 9 9 9 9 7 9 8 5 4 2 1 -3 -6 -13 -21 -1 -3 -19 -17 -11 -8 -5 -4 -5 -6 -6 -6 -7 -6 -5

GFSFLT2_850_dewp_024.txt.gz
Dewpoint
11 12 11 7 -1 -6 -6 -9 -12 -10 -8 -8 -6 -4 -2 -2 -2 -2 -1 -1 2 3 2 4 4 4 4 1 1 0 -4 -5
11 11 9 5 0 -5 -8 -9 -10 -7 -8 -7 -5 -3 -2 -1 -2 -2 -2 2 1 3 4 5 5 4 3 2 2 0 -4 -4
11 10 6 5 2 -1 -5 -7 -9 -7 -7 -4 -4 -3 -2 -1 -1 -1 1 1 3 4 5 5 5 4 3 1 0 -1 -4 -3
8 8 7 6 5 2 -4 -10 -10 -5 -5 -5 -4 -4 -3 -2 1 3 4 5 5 6 5 5 5 4 1 1 -0 -2 -2 -3
10 9 8 7 6 0 -8 -9 -2 -3 -1 3 1 -3 -3 -0 4 5 5 6 6 6 6 5 4 3 3 1 -2 -3 -5 -3
3 3 5 4 2 -3 -8 -6 -2 5 5 6 6 5 4 6 7 7 7 6 6 5 5 4 4 2 -1 -2 -2 -3 -6 -5
5 6 6 4 2 -3 -5 3 7 7 8 7 6 6 7 7 8 7 7 6 6 5 2 1 -1 -2 -1 -1 -2 -5 -9 -6
6 7 7 6 1 -2 2 8 9 9 9 8 8 8 8 8 8 7 5 5 3 0 -2 -3 -2 -1 -1 -1 -2 -8 -8 -9
6 7 9 6 -1 1 9 10 10 9 8 8 9 9 9 7 5 5 6 4 -3 -3 -3 -3 -2 -2 -1 -5 -8 -6 -8 -8
8 8 6 2 4 7 8 9 10 9 9 8 9 10 8 7 7 6 4 -3 -3 -3 -3 -3 -4 -5 -12 -8 -6 -6 -6 -5
8 6 3 4 8 9 9 9 8 9 9 8 7 7 8 7 5 -0 -3 -3 -3 -3 -6 -11 -15 -14 -11 -9 -7 -5 -4 -4
7 6 7 8 8 9 9 9 9 10 7 5 6 7 7 3 -3 -3 -3 -3 -5 -8 -12 -15 -16 -13 -13 -11 -6 -3 -4 -4
7 7 7 7 8 8 9 10 10 8 6 5 6 6 3 -3 -2 -2 -3 -5 -8 -13 -18 -22 -23 -21 -15 -8 -6 -5 -4 -5
7 8 6 7 8 8 9 9 7 5 5 4 4 2 -2 -2 -1 -2 -5 -7 -10 -16 -22 -25 -25 -21 -14 -8 -4 -6 -5 -4
5 6 8 8 8 9 9 9 6 5 3 1 -1 -2 -1 -1 -1 -3 -5 -9 -13 -19 -22 -20 -23 -17 -12 -8 -4 -4 -4 -4
6 6 7 7 8 9 9 9 6 5 3 2 0 -1 -0 -0 -0 -3 -6 -8 -16 -21 -14 -7 -19 -14 -7 -6 -5 -2 -3 -4
7 7 8 7 8 9 9 8 6 5 3 2 1 -0 0 0 -0 -5 -6 -11 -20 -4 2 -2 -15 -12 -8 -9 -10 -9 -8 -7
8 8 6 7 8 9 8 9 8 5 3 2 1 0 0 0 -1 -5 -7 -16 -11 1 0 -20 -18 -11 -10 -9 -9 -9 -8 -6
7 8 7 5 8 8 7 8 8 6 5 6 2 1 1 0 -3 -8 -17 -6 -1 -3 -13 -15 -14 -16 -9 -7 -7 -7 -7 -6
8 8 9 6 7 8 8 9 8 7 7 6 5 3 2 -0 -3 1 -5 -1 0 -4 -11 -22 -11 -7 -6 -6 -6 -7 -7 -6

GFSFLT2_850_dewp_030.txt.gz
Dewpoint
12 10 9 7 -3 -8 -11 -9 -8 -4 -4 -3 -2 -1 0 0 1 1 1 2 3 4 4 4 4 3 3 3 2 -1 3 3
11 10 10 6 -2 -6 -8 -9 -4 -4 -3 -1 -0 -1 1 2 2 2 3 4 4 5 5 5 4 3 3 3 2 1 1 1
11 10 8 1 1 -3 -5 -3 -5 -2 -3 -3 -2 -1 -1 4 4 3 4 4 5 5 5 5 4 3 3 2 0 1 1 0
11 9 7 7 4 4 1 1 -1 -2 -2 -2 2 -0 6 6 2 3 4 5 5 5 5 5 3 2 2 -0 -0 -0 -0 -0
10 9 8 6 3 3 4 1 -3 -2 -2 -2 -0 -1 -1 4 3 5 5 6 6 5 5 4 3 2 -1 -2 -0 -1 -3 -2
8 7 6 4 1 -1 0 3 3 -2 -3 -2 -1 -1 -1 0 4 5 6 6 6 5 5 3 -1 -3 -3 -3 -4 -3 -4 -2
4 3 2 1 4 3 3 1 -4 -5 -2 6 5 -2 -2 3 6 7 6 6 5 5 2 -2 -2 -3 -4 -7 -10 -15 -8 -3
6 5 4 5 6 3 -2 1 5 6 8 1 -2 -0 4 6 7 7 6 6 5 3 1 2 -2 -5 -12 -16 -19 -18 -16 -13
7 8 8 6 8 6 4 7 7 8 9 6 7 7 7 8 7 7 6 5 4 -2 -3 -4 -4 -9 -15 -17 -16 -18 -12 -14
9 9 8 8 7 8 5 6 7 9 8 8 8 8 9 8 8 6 5 5 2 -2 -1 -0 -1 -3 -8 -5 -8 -10 -12 -10
9 9 9 7 6 3 2 7 8 10 9 8 7 8 9 9 7 6 6 5 -2 -2 -4 -4 -3 -4 -4 -7 -7 -4 -4 -6
9 10 10 9 10 8 5 6 10 9 9 9 8 8 9 9 7 7 6 2 -2 -2 -5 -9 -5 -4 -6 -4 -3 -4 -4 -4
9 10 10 10 9 7 6 9 10 10 9 9 9 9 9 8 7 7 5 1 1 -4 -6 -10 -11 -9 -2 -1 -1 -2 -3 -4
10 10 10 10 9 6 7 9 10 9 9 8 9 8 7 7 7 7 2 1 -2 -4 -7 -10 -4 -3 -0 -0 0 -1 -2 -3
9 9 10 10 9 7 9 9 9 8 8 8 8 8 7 7 7 6 -0 -1 -2 -4 -6 -12 -1 -0 -1 1 -1 -3 -4 -4
9 9 10 10 10 9 9 8 9 8 8 7 8 6 6 7 7 5 -1 -1 -2 -4 -9 -7 -2 2 1 -1 -2 -5 -8 -7
10 10 10 10 10 9 9 9 9 10 7 8 7 6 5 6 5 2 -1 -1 -2 -6 -11 -5 2 -0 -0 -1 -3 -5 -5 -6
10 10 10 10 10 7 8 9 10 9 8 7 7 6 5 4 2 0 -0 -1 -3 -9 -9 1 0 0 -1 -5 -6 -5 -5 -6
10 10 10 10 9 7 7 8 9 6 7 7 8 7 5 3 1 1 -0 0 -1 -9 -2 3 1 -1 -7 -4 -3 -4 -6 -7
10 9 10 10 8 6 7 7 7 7 6 8 9 8 6 5 2 5 1 -0 -4 -8 3 2 -1 -4 -5 -2 -4 -4 -5 -6

GFSFLT2_850_dewp_033.txt.gz
Dewpoint
10 9 8 3 -2 -8 -13 -11 -6 -2 -1 -4 -3 -1 -1 -0 -1 -0 1 2 4 4 4 4 3 3 1 -1 -2 1 2 3
10 9 8 2 -2 -4 -7 -7 3 -1 -0 -1 -1 -0 -0 0 1 2 2 3 4 5 4 4 3 2 1 -1 1 1 1 2
11 10 9 4 -2 -4 -4 -2 -1 1 2 2 2 2 3 6 4 2 3 4 5 5 4 3 2 1 -0 -1 0 1 -0 1
11 10 6 1 3 2 5 3 -1 4 4 2 5 2 5 4 3 3 4 5 5 5 4 2 2 2 1 0 0 -1 -2 0
10 10 5 3 3 1 1 3 8 7 7 8 6 0 7 2 3 4 5 6 5 5 3 4 2 1 -0 -4 -0 -2 -3 1
10 9 7 3 6 5 5 7 6 4 -0 0 -1 2 6 6 7 7 6 6 5 6 4 1 -3 -4 -7 -6 -5 -3 -3 -0
8 7 6 7 7 8 7 5 -0 -1 1 -1 -1 6 8 8 8 7 7 7 6 6 2 3 1 0 -0 -0 -2 -2 -3 -3
8 8 8 8 6 3 2 2 1 2 2 -0 7 7 8 8 7 7 7 6 6 5 4 3 2 1 -1 -5 -8 -4 -7 -8
7 6 5 3 1 2 1 3 3 5 5 7 9 7 7 8 8 7 7 6 6 4 -0 2 1 -1 -2 -3 -2 -4 -3 -2
4 3 5 4 4 7 7 6 6 5 7 8 9 10 7 8 8 8 7 6 6 4 3 3 1 -1 -2 -3 -2 -3 -2 -3
8 8 7 8 8 8 6 6 5 7 8 8 10 10 9 9 8 8 7 6 5 4 3 2 1 -1 -1 -2 -1 -2 -1 -4
9 9 9 8 8 8 7 5 7 7 10 10 11 10 9 9 8 8 6 6 5 4 3 -0 -1 -1 -4 -3 -0 -1 -1 -2
8 8 8 9 10 8 5 5 7 9 9 10 11 9 9 8 8 7 7 6 4 4 2 -1 -1 -3 0 1 1 1 0 -1
8 8 8 8 8 7 5 5 6 9 9 10 10 10 8 7 8 7 7 5 4 3 -0 -0 -1 -0 1 2 2 1 0 -1
8 8 9 9 8 7 5 5 7 8 10 10 11 9 9 9 8 7 7 5 5 0 -2 -2 -1 1 1 2 1 0 -2 -1
9 8 8 8 8 7 6 7 7 8 10 10 10 8 8 9 8 8 7 5 4 2 -0 -1 -3 1 3 2 2 1 -2 -4
8 8 8 8 9 8 7 8 8 8 9 10 9 10 9 9 8 7 6 5 2 0 -1 -3 -6 2 1 2 1 -1 -2 -3
8 8 8 8 9 10 9 9 9 8 9 10 10 9 8 8 7 6 6 4 1 0 -1 -7 -4 2 3 2 -1 -3 -3 -3
9 9 8 9 9 10 10 10 10 9 10 10 9 8 7 7 8 7 5 4 1 3 1 1 1 3 4 1 -3 -2 -2 -4
10 9 9 9 9 10 10 11 10 10 10 9 8 7 8 8 5 8 7 4 3 4 0 2 0 4 1 -1 -1 -1 -3 -4

GFSFLT2_850_dewp_036.txt.gz
Dewpoint
13 13 13 12 7 0 -9 -11 -7 -2 -0 0 -0 -0 -0 -1 -2 1 3 4 4 3 3 2 0 -3 -3 -0 2 2 3 6
10 11 10 6 2 -7 -8 -6 -4 -3 -0 2 1 0 -1 -1 0 2 3 4 5 4 2 1 0 -3 -2 0 1 0 3 3
10 9 9 4 4 4 4 -2 2 1 2 3 1 1 1 1 2 3 4 5 5 4 2 1 1 -0 -1 0 0 -0 1 2
9 10 8 4 4 -1 -0 3 3 3 3 3 2 3 2 3 2 3 4 5 5 4 2 3 3 1 1 0 -2 -2 -1 -0
10 9 7 3 1 3 5 5 6 5 3 2 4 5 5 2 2 4 5 5 5 3 4 5 3 1 -5 -6 -2 -2 -2 -1
10 9 5 3 5 6 7 5 2 4 5 6 3 4 3 2 2 4 5 5 5 5 5 3 -4 -4 -8 -10 -6 -4 -1 -2
9 8 6 5 5 7 3 1 2 6 2 3 4 2 1 3 6 6 6 6 6 6 3 -1 -0 -5 -7 -5 -7 -10 -3 -3
9 8 5 4 4 3 4 5 6 7 2 1 3 7 4 7 9 8 7 7 6 6 4 2 2 -1 -7 -8 -4 -3 -6 -1
8 7 6 6 8 7 7 6 3 2 2 1 7 4 7 8 8 7 7 6 6 5 4 3 1 0 -2 -4 -2 -2 -2 -4
7 7 7 8 6 5 4 3 3 4 2 3 -1 2 7 7 8 8 7 7 6 5 2 2 2 0 -2 -2 -2 -2 -1 -2
7 6 6 3 2 3 2 2 3 6 5 7 7 8 9 7 8 8 7 7 6 4 4 3 2 -0 -1 -1 -2 -1 -1 -2
3 4 4 1 2 3 5 4 6 6 5 7 7 6 10 8 8 8 8 7 6 4 4 3 1 0 -1 -4 -3 0 0 -1
5 5 6 2 6 8 9 6 5 3 7 8 8 8 10 9 9 8 8 6 6 5 3 3 -1 -0 -2 -1 1 1 1 0
8 6 6 8 8 6 6 6 4 3 7 9 7 9 9 9 8 8 7 7 6 4 4 2 -1 -1 -1 2 2 2 1 1
9 9 8 8 8 6 8 6 5 5 8 7 7 10 9 9 8 8 8 6 6 5 4 1 0 -0 -1 2 2 2 1 -0
8 8 7 8 8 8 8 6 4 6 8 8 8 9 10 9 9 8 8 7 6 5 5 1 -1 -0 1 3 2 2 1 -2
8 8 8 8 7 8 8 6 5 5 8 9 9 10 9 8 9 9 8 8 6 5 4 3 0 -0 2 2 3 3 1 -1
9 8 8 8 8 7 8 8 6 7 8 8 9 8 8 9 9 9 8 8 7 6 5 4 1 -1 1 3 3 3 0 -1
8 8 9 9 8 9 9 8 8 7 8 9 10 9 8 8 8 8 7 7 7 6 7 3 2 -1 -1 2 3 1 -2 -2
6 7 8 8 8 9 9 7 8 10 9 9 9 8 7 4 6 7 8 5 6 7 6 4 3 2 3 4 3 0 -1 -1

GFSFLT2_850_dewp_042.txt.gz
Dewpoint
12 12 7 11 8 -5 -9 -7 -2 -0 -1 -2 -2 -1 0 2 3 2 1 2 1 -5 -3 2 1 2 3 4 3 3 1 -0
10 12 12 11 9 -2 -8 -7 -2 0 -1 -2 -2 -0 1 3 3 2 -0 1 -1 -4 -5 -2 2 1 1 1 1 1 0 -2
11 11 11 10 8 -2 -6 -6 -0 1 1 0 -0 1 2 3 4 4 1 -1 -1 -2 -4 -2 1 1 1 -0 -0 -0 -1 -4
9 6 10 10 9 2 -1 3 3 3 4 2 -1 1 3 3 4 4 4 -0 0 1 -0 -2 -3 -3 -2 -1 -2 -3 -4 -3
8 9 10 9 4 -1 -1 1 3 4 2 1 -1 1 2 0 -0 4 4 2 1 2 1 0 0 -1 -5 -4 -5 -4 -3 -3
10 10 10 9 6 -1 -1 4 1 2 1 -1 1 1 -1 -1 -1 2 5 4 1 1 0 -0 2 -0 -7 -7 -6 -5 -3 -3
10 10 10 8 5 3 3 2 3 1 0 1 -0 -1 0 1 0 4 5 5 4 1 2 2 -2 -5 -9 -8 -6 -6 -4 -4
10 10 9 8 7 4 5 5 3 2 1 -0 1 0 1 0 2 3 5 5 5 4 2 -0 -2 -5 -5 -7 -6 -4 -4 -3
10 10 8 6 3 1 2 5 4 4 4 2 1 4 2 2 4 4 5 6 6 6 4 1 -1 -2 -3 -5 -3 -2 -1 -1
9 8 7 5 2 2 6 4 3 5 2 0 2 2 3 4 4 7 7 7 7 6 4 2 1 -0 -1 -2 -2 -2 -1 0
9 8 7 5 5 5 5 4 3 1 1 -0 1 4 6 4 5 7 8 7 7 6 6 4 3 1 -0 -1 -1 -2 -2 1
9 8 6 6 6 7 5 3 1 1 1 1 3 4 4 3 4 5 7 7 7 7 6 5 4 2 1 1 -1 -1 -3 -0
8 8 7 7 6 6 5 3 1 1 1 1 3 5 4 5 4 3 6 7 7 7 7 6 5 3 2 1 -1 -1 -3 -0
8 8 7 6 4 4 3 2 2 2 2 2 2 4 5 8 7 5 7 8 8 7 7 7 4 3 2 1 -1 -1 -2 0
6 6 6 5 4 4 4 5 4 4 2 2 3 6 6 8 8 7 7 7 8 8 8 7 5 4 3 1 -0 0 1 2
6 6 7 6 6 6 5 5 4 3 3 3 5 6 6 6 7 8 7 8 8 8 8 7 6 5 4 3 -0 -0 1 1
3 6 6 3 2 3 3 3 3 3 3 3 4 5 2 7 8 6 6 8 8 8 8 7 6 5 5 5 1 2 1 1
1 2 2 3 4 3 2 2 2 2 2 2 1 -2 2 5 7 6 7 7 7 7 8 7 7 6 6 6 5 4 2 2
2 2 2 3 3 4 5 4 5 5 1 3 5 4 4 5 7 8 8 7 7 7 8 8 7 6 7 6 7 6 3 3
4 2 2 1 2 4 5 5 5 4 4 6 8 6 4 7 9 9 8 7 8 7 8 9 8 7 7 7 7 5 4 3

GFSFLT2_850_dewp_045.txt.gz
Dewpoint
12 11 10 11 10 8 4 -8 4 8 -0 -1 -2 -1 0 1 0 -1 1 4 3 2 3 4 5 5 4 2 1 -0 -7 -11
12 12 11 9 8 8 4 -4 3 7 -0 -1 -1 1 2 1 1 1 -1 -3 -1 2 2 2 2 2 1 0 0 -2 -6 -11
11 11 10 9 9 7 5 2 6 7 -0 0 1 2 2 1 1 1 -2 -5 -5 -0 2 2 2 1 0 -1 -2 -3 -5 -8
10 9 10 10 9 6 6 7 5 1 0 0 1 3 3 2 -1 -3 -5 -6 -6 -3 -1 -0 -1 -1 -2 -3 -4 -4 -4 -4
10 9 7 9 8 6 7 6 6 3 1 0 2 3 4 4 4 1 -2 -5 -4 -4 -4 -4 -5 -6 -5 -4 -5 -4 -3 -3
8 9 9 8 8 7 6 7 4 1 0 1 2 2 3 1 4 4 -1 -4 -1 -0 -1 -1 -2 -4 -6 -5 -5 -4 -3 -3
8 8 9 10 9 7 4 4 5 2 2 0 2 0 -2 -1 3 5 4 1 -1 -0 -1 -2 -3 -6 -7 -6 -5 -4 -3 -2
10 10 10 9 7 6 5 4 2 4 1 0 1 -2 -1 -1 2 5 5 5 3 1 0 -2 -3 -5 -7 -6 -4 -3 -2 -1
10 10 10 8 6 9 6 4 4 1 -1 1 -0 -1 0 1 2 4 4 5 5 5 0 -1 -3 -5 -5 -4 -3 -2 -1 -1
10 10 9 8 4 9 6 4 1 1 1 1 2 2 2 1 2 3 2 5 6 6 4 0 -0 -1 -2 -4 -4 -2 -2 -1
10 10 9 8 9 8 6 4 3 3 4 5 3 3 3 3 5 5 5 5 6 6 6 4 1 0 -0 -1 -1 -2 -2 -2
9 9 9 9 8 6 3 6 6 6 3 5 4 6 1 4 4 4 4 6 7 7 6 6 5 4 3 1 -0 -1 -1 -2
8 9 8 8 6 6 7 5 8 5 3 4 4 6 5 6 5 3 3 6 5 7 7 7 6 5 3 2 0 -1 -1 -1
8 8 8 7 5 6 6 5 5 4 2 2 2 2 1 3 4 4 4 6 7 7 7 7 5 5 3 2 1 -0 -1 -1
8 8 8 7 6 6 5 6 4 3 2 2 1 2 2 4 5 6 8 7 7 7 7 7 7 7 5 3 1 1 1 -0
7 8 7 7 7 7 6 6 5 2 1 1 1 1 1 3 6 7 8 8 7 8 8 8 8 8 6 4 2 3 2 1
6 6 7 7 7 6 5 5 5 4 2 1 -0 1 1 3 6 6 6 7 8 8 8 8 8 8 7 6 4 4 4 1
3 5 5 6 6 5 4 3 3 4 4 4 3 2 2 2 5 5 6 7 7 6 7 7 8 8 7 7 6 5 6 3
2 2 3 5 5 4 4 4 5 5 4 4 2 2 1 1 4 4 1 7 7 8 7 7 7 7 7 7 6 6 6 3
1 1 1 3 3 2 2 3 4 4 3 3 1 1 1 0 1 1 2 5 8 7 9 8 7 7 8 7 7 6 6 6

GFSFLT2_850_dewp_048.txt.gz
Dewpoint
11 11 10 10 9 8 9 1 7 4 2 -0 -4 -4 -4 -2 2 3 4 4 4 5 6 6 4 3 1 -2 -7 -12 -10 -9
10 11 11 10 9 9 4 5 5 -2 0 -2 -4 -4 -1 3 4 5 4 3 3 4 5 5 3 1 -0 -4 -7 -11 -10 -6
11 11 11 10 10 7 5 8 7 3 0 -2 -3 -1 -0 2 3 4 3 3 2 2 2 1 2 1 -2 -4 -6 -6 -7 -4
12 12 11 11 10 7 5 4 4 5 1 -1 -0 1 0 0 -1 -3 -3 -2 1 1 1 1 -0 -2 -3 -6 -4 -4 -4 -3
10 11 11 11 10 9 7 8 8 5 1 -0 1 2 2 2 -1 -4 -5 -6 -4 -1 -1 -3 -5 -5 -4 -5 -3 -3 -3 -3
8 9 10 10 10 8 4 5 5 4 3 1 2 1 -0 -1 -3 -3 -4 -5 -5 -5 -5 -5 -7 -6 -5 -5 -3 -3 -2 -2
9 8 8 9 8 8 8 8 8 6 4 3 3 3 2 1 -1 -3 -1 -1 -2 -3 -2 -3 -4 -6 -5 -5 -3 -3 -2 -1
8 9 8 8 8 7 7 7 6 4 2 2 4 4 3 4 3 1 -0 -0 -2 -3 -3 -3 -4 -6 -6 -5 -4 -3 -2 -0
9 9 9 9 9 8 6 7 6 5 6 2 3 2 0 2 4 4 3 3 1 -3 -3 -3 -5 -4 -6 -5 -5 -3 -2 -1
10 10 10 9 9 8 7 6 6 5 5 2 3 1 0 1 3 4 5 5 4 4 0 -2 -4 -4 -4 -4 -4 -3 -1 -1
10 10 10 9 8 5 3 6 7 4 6 2 2 1 2 2 3 4 3 5 5 5 5 1 -1 -1 -1 -1 -2 -3 -2 -2
9 10 10 9 7 9 8 8 7 3 5 3 2 2 3 3 4 5 4 5 6 6 6 5 4 3 2 2 1 -1 -1 -1
9 10 10 9 7 9 8 5 4 3 2 6 5 4 4 6 5 4 5 5 5 6 7 6 6 6 4 3 2 1 1 0
9 9 9 9 7 9 8 5 5 3 5 7 5 6 5 6 3 4 4 4 5 5 7 7 7 7 5 4 2 2 1 1
8 8 8 9 9 9 8 6 5 3 7 6 4 3 1 5 5 5 4 5 6 6 6 7 7 7 6 5 3 2 2 2
8 8 8 8 8 8 7 5 4 4 6 4 4 3 2 4 4 4 2 5 8 8 8 8 8 7 7 6 6 5 3 3
7 7 8 8 7 6 6 5 6 4 6 3 2 2 2 2 3 3 3 5 7 8 8 7 7 8 7 7 7 6 5 3
6 7 7 8 7 7 6 6 5 5 4 3 3 2 2 1 2 2 2 4 5 6 6 7 7 8 8 8 8 7 6 5
4 5 6 7 7 7 7 6 6 5 4 3 3 2 1 1 1 0 1 3 4 6 4 6 8 8 8 9 8 8 7 6
1 1 3 5 5 5 5 6 5 5 5 4 4 4 3 2 2 1 1 2 4 4 2 6 9 9 9 8 8 8 8 7

GFSFLT2_850_dewp_054.txt.gz
Dewpoint
12 12 10 9 9 9 9 10 9 10 6 3 -2 5 6 8 8 9 8 6 4 -1 -3 -9 -13 -12 -10 -9 -2 6 6 6
12 12 11 11 10 11 11 10 9 6 5 2 4 8 8 8 5 6 5 5 3 1 -1 -5 -10 -10 -9 -8 -4 6 6 6
12 11 10 9 8 9 9 8 7 6 4 5 -1 9 9 4 5 5 6 5 3 2 -1 -4 -8 -10 -9 -4 6 6 6 6
12 10 7 10 10 9 10 11 10 6 4 5 9 9 7 9 4 5 6 6 5 2 -1 -3 -1 -2 -3 3 6 7 6 6
12 12 8 8 10 10 10 10 9 6 7 7 5 8 6 5 4 5 5 6 5 3 1 5 5 5 5 6 7 7 7 6
12 12 11 9 10 10 10 10 9 9 8 5 5 7 5 8 8 9 8 8 7 6 6 6 6 5 5 6 7 7 7 7
11 11 10 10 11 11 11 10 8 8 6 7 7 3 6 7 8 8 8 8 8 7 7 6 5 4 5 6 7 7 7 7
10 10 10 10 11 11 10 9 8 9 7 2 2 2 4 5 5 5 6 7 7 6 5 5 4 4 5 5 6 7 7 7
10 10 11 11 10 9 10 9 8 7 7 2 3 2 1 -0 1 3 4 5 5 4 5 4 3 4 5 4 4 5 6 7
9 9 8 8 9 9 9 8 8 7 3 1 -0 -0 -0 -2 2 3 3 2 3 4 5 4 3 3 4 4 4 4 4 5
10 9 8 9 9 9 7 8 7 7 5 1 3 2 2 -1 -2 2 -1 4 3 3 3 3 3 3 3 3 2 2 1 3
10 9 9 9 9 8 8 7 7 7 5 5 4 3 2 -1 0 -0 3 5 1 2 3 1 2 1 -0 1 1 2 2 1
9 10 9 9 9 8 9 8 7 5 5 4 6 3 2 1 4 1 4 6 6 5 5 2 2 1 1 1 1 0 1 2
9 9 9 9 8 8 8 7 7 6 5 4 6 5 3 4 5 4 4 6 6 5 6 6 5 3 3 4 4 3 3 4
9 9 9 9 9 9 9 8 7 7 5 7 5 7 5 6 4 6 5 5 5 5 5 7 7 6 6 6 5 5 4 4
8 9 9 9 9 9 8 8 8 6 5 5 7 8 6 7 4 4 4 5 6 7 4 4 7 7 7 6 7 6 5 5
9 8 9 9 9 9 8 8 7 6 7 6 8 6 7 4 4 4 5 6 5 6 4 4 8 8 7 7 7 7 7 7
9 8 8 9 9 9 7 7 7 6 6 5 5 6 7 4 4 4 6 6 4 4 4 4 5 7 6 8 8 7 7 7
8 8 8 8 9 9 8 8 5 7 7 6 5 6 5 5 5 5 6 6 5 5 5 4 5 6 6 6 8 8 8 7
4 8 8 8 9 9 9 8 8 8 7 7 5 4 3 4 4 3 3 4 4 4 4 3 3 2 2 3 8 8 6 5

GFSFLT2_850_dewp_060.txt.gz
Dewpoint
13 13 13 13 11 10 12 12 12 12 10 6 6 7 8 8 9 4 -2 -3 -7 -8 -9 -7 -1 2 5 5 6 7 7 8
12 13 13 13 12 10 12 11 9 10 10 7 6 6 7 7 6 5 -1 -6 -9 -10 -9 -6 -3 0 5 6 6 6 6 7
11 12 13 13 12 10 11 10 9 12 10 8 7 7 7 6 8 8 1 -3 -9 -10 -10 -10 -6 -0 6 5 6 6 7 7
11 11 13 13 11 11 11 11 8 11 10 9 6 5 5 -1 9 8 2 -4 -9 -12 -10 -9 -9 2 6 6 6 6 6 6
11 11 12 12 11 11 10 10 9 12 11 9 7 7 9 8 10 7 1 -1 -5 -8 -10 -9 -7 5 6 6 6 6 6 5
10 12 12 11 11 10 10 10 8 10 10 9 6 4 8 8 9 6 2 0 -3 -8 -3 1 -3 6 7 6 7 6 6 5
10 10 12 11 10 9 10 9 8 8 9 9 6 7 7 6 7 6 2 1 -2 2 6 5 5 6 7 6 7 6 6 5
10 11 11 11 9 9 10 10 9 8 9 7 7 7 6 7 6 6 4 3 -0 7 7 6 6 6 7 7 7 7 6 4
10 10 11 11 9 9 9 10 9 10 9 8 7 6 6 5 6 6 6 7 5 6 7 6 6 6 7 7 7 7 7 5
10 9 11 11 11 10 10 10 10 10 9 8 7 7 7 4 7 7 6 8 6 7 6 5 5 6 7 7 7 7 7 7
9 9 9 9 11 10 10 10 10 10 10 8 7 2 8 7 6 7 6 8 7 7 5 4 4 5 6 6 6 7 6 7
10 9 9 8 8 8 9 9 10 10 9 8 7 4 8 9 8 7 7 7 6 5 5 4 4 4 5 5 5 5 5 6
10 9 9 8 8 9 9 9 9 9 8 5 8 7 7 7 5 4 5 5 5 5 5 4 4 3 4 4 4 4 4 3
10 9 9 8 8 9 9 9 9 8 7 5 8 6 7 6 4 4 4 4 4 4 4 4 4 3 3 2 3 3 3 3
10 10 9 9 8 9 9 9 8 7 7 3 3 6 5 4 2 1 1 4 4 5 4 4 3 3 3 1 2 3 3 2
9 10 9 9 9 9 9 8 8 6 3 2 6 4 3 2 2 1 -1 -0 1 6 6 5 5 4 3 1 3 5 6 6
9 10 9 9 9 9 9 8 8 6 6 4 4 5 4 3 3 3 1 1 4 8 7 6 6 7 6 4 3 5 6 6
10 10 10 9 9 9 9 8 8 6 4 5 4 3 4 2 2 3 7 5 4 7 8 7 6 6 7 8 7 5 3 5
9 9 10 10 9 9 9 8 8 8 5 3 3 4 4 4 4 3 4 6 7 6 7 6 6 6 5 5 6 5 4 5
10 10 9 10 9 9 9 9 8 8 8 6 3 4 6 5 5 3 3 8 7 7 5 5 5 5 5 5 6 5 4 4

GFSFLT2_850_dewp_063.txt.gz
Dewpoint
14 14 13 12 13 12 12 12 12 13 12 7 6 8 8 6 10 9 4 1 -7 -2 4 4 4 7 7 7 7 7 5 4
11 13 14 13 13 11 11 11 11 10 11 11 9 10 9 6 7 6 -0 -6 -5 0 -5 2 5 6 6 7 7 7 6 -1
11 11 13 13 13 11 11 11 11 9 8 9 10 11 6 6 5 3 1 -3 -6 -5 -4 -1 5 6 6 6 6 6 3 -5
10 10 12 13 13 12 11 10 11 10 9 8 11 9 7 7 4 2 -4 -7 -7 -5 -1 1 5 6 6 7 6 6 5 3
11 11 12 12 12 11 11 10 10 8 9 11 10 9 8 8 8 2 -1 -6 -5 -8 -5 -4 6 5 6 7 7 6 6 4
11 12 12 12 12 11 11 11 9 7 9 10 9 7 5 7 9 3 -4 -8 -11 -9 -9 -2 5 6 6 8 6 6 6 1
11 12 11 11 11 10 11 10 8 9 11 10 7 4 3 7 8 4 -0 -6 -10 -11 -10 3 6 6 6 7 7 6 5 3
11 11 11 11 10 10 11 9 8 9 10 9 7 8 8 7 8 4 -0 -3 -9 -7 -7 4 7 6 6 7 6 6 6 5
11 12 11 11 10 9 10 10 9 9 9 8 5 4 8 7 7 4 1 -2 2 5 5 4 6 7 6 7 6 6 5 3
11 12 11 10 10 9 10 9 9 9 9 8 6 6 7 6 7 5 2 -0 6 7 6 6 6 6 7 7 7 7 7 6
10 10 11 11 10 10 9 9 10 10 10 8 7 6 6 5 6 6 4 4 5 7 6 5 6 6 6 7 7 7 7 7
9 10 10 11 9 10 10 10 10 10 9 9 8 7 6 6 6 6 6 7 6 7 6 5 5 6 6 6 6 7 7 7
10 10 10 10 10 10 10 10 10 10 10 9 8 6 7 9 7 7 7 7 7 7 6 4 5 5 5 5 6 6 5 6
9 10 9 9 8 8 9 8 9 9 10 10 8 9 9 9 7 7 7 8 7 6 5 5 5 4 5 5 5 5 5 4
8 9 9 9 9 8 9 9 9 9 9 9 8 7 9 8 6 7 7 6 6 5 5 5 4 4 4 5 4 4 3 3
8 9 10 9 9 9 9 9 8 8 8 8 7 4 8 7 6 7 7 6 5 4 4 3 1 4 4 3 2 1 3 4
8 9 9 9 9 8 8 9 9 8 7 8 8 6 6 6 6 5 1 1 3 5 4 1 1 4 3 3 2 1 5 6
9 7 9 9 9 8 8 8 8 7 7 5 5 4 5 4 4 0 1 2 4 4 0 1 3 3 3 3 3 1 3 3
8 8 9 9 9 8 8 8 7 7 7 5 4 6 5 3 3 1 1 1 2 3 3 3 3 7 5 6 7 6 5 5
8 9 7 8 9 9 8 8 8 8 7 5 3 2 3 3 2 1 2 4 4 3 5 7 5 7 7 6 6 7 6 5

GFSFLT2_850_dewp_066.txt.gz
Dewpoint
11 14 14 12 13 12 13 13 12 12 12 11 9 6 8 10 8 7 7 9 7 8 8 9 9 9 8 7 8 7 7 5
10 12 13 12 12 13 12 11 8 12 12 12 11 9 10 10 9 4 -1 -1 7 8 7 8 8 7 7 7 7 6 5 1
10 10 12 12 12 12 12 12 12 11 10 10 9 12 10 10 9 5 -7 -1 5 7 7 7 7 7 7 7 7 6 2 -6
10 10 11 13 13 13 12 12 11 10 10 9 9 10 9 10 10 5 -2 -5 4 6 6 7 6 7 7 7 6 3 -7 -9
9 10 11 12 12 13 12 12 11 10 10 8 8 9 10 11 9 7 -2 -5 -1 2 5 6 7 7 6 6 5 5 4 -8
10 11 11 11 11 12 12 11 11 11 9 9 7 11 9 10 6 -2 -7 -7 -4 -4 3 6 7 7 6 6 6 6 5 -1
9 12 11 11 11 11 11 11 10 10 8 9 8 10 9 8 3 -2 -5 -7 -6 -1 3 6 6 7 7 6 6 6 5 -2
9 10 11 10 11 11 11 11 10 10 9 11 11 9 8 8 5 1 -5 -7 -8 -4 1 5 6 7 7 6 6 6 6 3
9 9 11 11 10 10 11 11 9 9 10 11 9 8 7 9 7 2 -2 -9 -10 -9 1 5 6 7 7 7 6 6 6 4
7 9 11 11 10 10 10 10 8 9 10 9 8 6 3 3 5 3 -2 -7 -12 -11 4 7 6 6 7 6 6 6 6 0
6 10 11 11 10 10 9 10 9 9 10 10 9 7 6 5 8 3 -1 -6 -6 -7 6 6 4 6 7 7 6 7 7 5
7 9 10 10 10 9 9 10 10 10 10 9 7 9 8 8 8 3 -1 -3 3 4 3 3 4 5 7 7 7 7 7 7
7 9 10 10 10 10 10 10 10 10 10 9 8 7 7 7 8 4 1 4 6 7 6 5 6 6 7 7 7 7 7 7
7 7 11 10 10 10 10 10 10 10 10 10 8 7 8 6 5 6 3 1 5 7 6 6 6 5 5 6 7 7 7 7
7 4 10 10 11 10 10 10 10 10 10 10 9 8 7 6 5 7 5 6 5 7 6 5 5 6 5 5 6 6 6 6
6 5 10 10 10 9 8 8 8 8 9 9 9 8 7 7 8 8 6 7 7 7 7 5 4 5 6 6 4 5 4 4
6 6 9 9 9 9 9 8 8 9 9 9 9 8 7 9 9 9 7 8 8 7 6 5 4 5 6 1 3 5 2 2
7 6 8 9 9 9 8 8 8 9 9 9 9 9 8 8 8 8 8 7 6 7 4 5 5 4 1 2 4 4 2 3
7 7 5 9 9 8 8 8 8 8 9 9 9 8 7 8 6 7 8 7 6 5 5 4 4 2 2 1 3 3 3 2
8 7 6 6 9 8 8 8 9 8 8 7 7 7 5 5 7 7 7 5 4 3 3 3 1 2 2 3 2 3 3 3

GFSFLT2_850_dewp_072.txt.gz
Dewpoint
6 6 9 11 13 12 12 11 10 10 11 12 11 9 7 7 8 10 10 10 9 9 7 9 9 9 9 9 8 8 8 8
5 6 12 13 11 11 13 12 12 12 12 10 11 10 9 8 10 11 10 9 8 7 8 9 8 8 8 8 6 8 7 7
4 7 12 11 12 11 11 12 12 12 11 8 9 9 10 9 11 11 10 9 7 8 9 9 8 8 8 7 7 7 7 6
4 8 9 10 11 10 10 11 12 12 11 8 8 9 10 9 8 10 9 9 8 8 9 8 8 7 8 8 7 6 5 5
6 8 9 10 10 10 11 10 11 12 10 9 8 8 9 10 9 10 9 10 9 9 9 8 8 7 8 7 6 6 2 3
3 8 9 10 10 11 10 10 11 11 11 8 9 10 10 8 9 8 9 9 9 9 9 9 8 7 7 7 4 -2 -3 -1
3 6 9 9 9 11 10 10 11 11 11 10 11 11 9 9 9 9 8 8 9 9 9 8 7 7 7 6 4 3 -5 -4
3 6 8 9 9 11 10 10 11 11 11 11 11 10 10 10 9 8 8 8 9 9 8 7 6 7 7 6 6 5 2 -5
5 6 8 8 9 10 10 11 11 11 11 11 11 9 9 9 9 8 9 9 9 8 8 7 7 7 6 6 6 6 4 -2
7 6 8 9 10 9 10 10 10 11 11 11 11 9 9 9 9 8 9 8 9 8 7 7 7 6 7 6 6 6 5 3
7 6 8 9 9 9 9 10 10 10 11 11 11 10 10 10 9 8 9 6 9 8 7 7 7 7 5 6 6 6 6 5
8 7 7 9 9 9 9 10 10 10 10 9 10 10 10 10 10 8 8 4 9 8 7 6 6 6 6 6 6 7 6 6
8 7 6 10 9 9 9 10 11 10 10 10 10 10 10 10 9 9 5 1 3 5 6 6 6 7 7 7 7 7 7 6
8 7 5 10 10 10 9 9 11 10 11 10 10 10 10 10 9 9 3 -0 2 3 4 5 6 7 7 7 8 7 7 7
8 7 5 9 11 10 9 9 10 10 10 10 10 9 8 8 9 9 3 -3 -3 1 4 4 6 7 7 7 7 7 7 7
8 7 6 6 11 9 9 9 10 10 10 10 10 10 10 9 8 8 7 -1 -4 -5 1 1 6 6 7 7 6 6 7 7
8 8 7 4 11 9 9 9 9 10 9 9 10 10 10 10 9 7 9 7 -1 -8 -8 -1 6 6 6 7 7 6 6 4
8 8 7 3 8 10 9 9 9 9 9 9 9 10 10 10 9 9 8 8 3 -5 -5 -2 6 5 4 4 6 7 6 2
8 7 7 2 5 9 10 9 9 9 9 9 9 9 9 9 10 9 8 9 6 -1 4 2 2 5 5 6 6 6 5 -0
7 7 7 4 3 8 9 9 9 8 7 8 8 8 8 9 9 9 8 8 8 6 1 5 5 5 5 6 6 5 5 3

GFSFLT2_850_dewp_075.txt.gz
Dewpoint
3 4 7 11 12 11 11 10 10 10 10 11 12 12 13 12 11 10 8 9 8 9 10 9 9 10 10 10 9 10 9 8
5 5 7 10 12 12 12 12 11 10 11 11 11 12 11 12 10 6 7 7 8 10 10 9 9 10 10 9 9 8 8 8
4 4 5 10 13 11 11 12 12 11 11 10 10 8 8 9 8 8 10 10 10 11 10 8 9 10 9 8 8 8 8 8
4 4 6 10 12 12 11 11 12 12 12 11 10 8 7 8 9 9 10 8 10 10 9 8 10 9 8 7 7 7 8 7
4 3 6 9 11 11 11 10 10 12 12 12 10 8 7 7 8 10 10 10 10 10 10 10 9 8 8 7 7 7 6 6
4 3 5 9 10 10 11 11 10 9 10 11 10 8 8 9 8 10 10 11 10 10 10 8 8 7 7 7 6 7 6 6
5 3 3 8 9 10 11 11 10 10 11 11 9 9 8 7 9 9 10 9 10 10 9 8 8 7 8 6 6 2 0 4
5 3 5 8 9 10 11 11 10 10 12 11 10 10 9 8 10 9 10 9 9 9 9 9 8 7 7 6 4 2 -1 4
6 5 7 7 9 10 10 10 10 11 11 10 10 9 10 9 10 9 10 8 9 9 9 9 7 8 7 5 5 4 1 1
7 6 6 7 8 9 9 10 10 11 10 10 11 11 10 11 10 9 10 8 10 9 10 8 7 7 7 6 6 5 3 -1
6 7 6 8 8 9 9 10 10 11 11 11 11 11 11 10 10 9 9 7 10 9 9 7 7 7 6 6 6 6 5 3
7 7 7 8 9 10 9 10 10 10 10 10 11 11 10 10 10 9 9 9 10 9 8 7 7 7 7 6 6 6 6 5
7 8 8 9 10 10 9 10 10 10 9 10 10 10 10 10 10 10 9 9 8 9 8 7 7 7 7 7 7 7 6 6
7 7 8 9 7 10 11 10 9 9 10 10 9 10 10 10 10 10 9 9 8 9 8 7 7 7 7 8 8 7 7 7
7 7 8 8 9 10 10 11 10 10 10 10 9 10 10 10 10 9 8 9 6 8 8 7 7 7 7 8 8 8 7 7
8 7 8 8 9 10 9 10 9 9 10 10 10 10 10 10 10 10 9 9 4 4 7 7 6 6 7 7 6 6 7 7
8 7 8 8 9 9 10 10 9 10 10 10 10 10 9 9 8 7 9 7 2 -1 1 5 6 6 7 7 7 6 5 5
8 8 8 8 8 9 9 8 9 9 10 10 10 10 10 10 9 8 7 8 2 -1 -0 3 5 5 6 7 7 6 6 5
8 8 8 8 8 9 9 9 9 9 8 9 10 9 9 10 10 9 8 9 7 1 0 -2 1 3 3 6 6 6 5 5
9 8 8 8 6 8 9 8 9 9 8 8 8 8 9 9 10 9 9 8 8 8 2 -3 -5 -4 1 6 6 5 4 5

GFSFLT2_850_dewp_081.txt.gz
Dewpoint
1 0 0 1 2 4 6 9 10 10 10 11 12 13 12 14 13 12 11 12 11 11 9 9 11 11 10 11 11 11 12 12
7 1 1 2 2 5 8 9 10 10 10 10 11 11 12 12 12 12 12 11 11 11 9 9 12 10 9 11 11 10 11 10
4 3 3 4 3 8 8 10 11 10 10 10 10 11 11 12 10 11 12 11 11 11 8 9 11 10 10 11 10 8 9 9
14 6 4 4 13 15 13 13 12 11 11 12 11 11 11 11 9 8 9 11 9 9 8 8 10 11 11 11 8 9 8 8
14 10 5 4 11 14 14 14 14 13 13 13 11 11 11 11 9 10 8 10 9 9 9 9 11 11 11 9 10 9 7 7
14 15 13 10 13 13 14 12 13 13 12 13 13 11 11 11 11 10 11 10 9 9 9 10 11 11 11 10 9 7 7 8
13 14 14 4 -0 7 11 13 14 13 13 12 12 12 11 11 11 11 10 9 8 9 9 10 10 11 10 9 8 8 7 8
13 14 8 4 1 4 9 10 12 11 12 12 13 12 12 12 10 9 9 9 9 10 10 10 10 10 10 8 7 8 8 7
13 14 10 6 3 2 7 9 12 13 11 11 11 12 12 11 10 9 8 8 9 10 11 10 10 10 8 8 8 7 7 7
12 14 10 8 6 6 3 8 12 12 12 11 11 11 11 11 11 8 8 8 10 11 10 10 9 9 8 8 7 7 6 7
12 14 9 7 7 2 2 7 9 13 13 12 10 11 11 11 10 8 8 8 10 10 10 10 9 8 7 7 6 6 6 6
13 13 13 12 6 3 4 4 9 9 10 10 11 11 11 11 10 9 9 9 10 10 9 9 9 8 7 7 7 6 6 6
13 13 13 12 7 4 2 4 10 8 9 9 10 10 11 11 11 10 10 9 10 10 8 9 8 7 7 7 7 7 6 6
13 13 13 11 10 7 4 9 10 10 10 9 9 10 9 10 10 10 10 10 10 10 9 8 8 8 7 8 8 8 8 7
12 13 13 10 11 9 7 8 11 9 10 10 9 10 10 10 9 10 10 10 10 8 8 8 8 8 7 7 8 7 8 8
12 12 12 12 11 9 8 11 10 11 10 10 9 10 10 10 10 10 9 10 10 5 8 8 8 7 8 7 6 4 6 8
12 12 12 12 12 11 11 10 11 11 11 10 9 9 9 8 10 10 10 10 10 9 8 8 8 8 7 7 6 6 6 6
12 12 12 12 12 11 10 10 10 11 10 10 10 10 9 8 10 10 10 10 10 9 7 6 8 8 7 7 7 7 7 6
12 12 11 12 11 11 10 10 11 9 10 10 10 10 10 9 9 10 10 10 9 9 8 7 8 8 8 7 7 7 7 6
11 11 11 11 11 11 10 10 11 11 11 10 9 9 10 8 9 10 10 10 9 9 8 8 8 8 8 7 8 7 6 6